This demonstration page uses our WeatherBlox Daily Observations layout. Learn more.

Left ArrowRight Arrow

Hourly Observations for August 3, 2020

Temp ( °F °C ) Dew Point ( °F °C ) Humidity (%) Winds ( mph kmh ) Pressure ( in mb ) Visibility ( mi km ) Precip ( " mm )
12:52 am 00:52 Clear 65 18.3 63 17.2 93 93 NW 5 7 29.96 1015 10 16 0.00 0.00
1:52 am 01:52 Clear 64 17.8 62 16.7 93 93 NW 3 6 29.98 1015 10 16 0.00 0.00
2:52 am 02:52 Partly Cloudy 63 17.2 62 16.7 97 97 NW 5 7 29.97 1015 10 16 0.00 0.00
3:52 am 03:52 Clear 64 17.8 63 17.2 96 96 NNE 5 7 29.97 1015 10 16 0.00 0.00
4:20 am 04:20 Partly Cloudy 64 17.8 63 17.2 96 96 N 5 7 29.98 1015 10 16 0.00 0.00
4:25 am 04:25 Mostly Cloudy 65 18.3 64 17.8 97 97 N 6 9 29.98 1015 10 16 0.00 0.00
4:52 am 04:52 Cloudy with Mist and Fog 64 17.8 64 17.8 100 100 N 8 13 29.98 1015 5 8 0.00 0.00
5:06 am 05:06 Cloudy with Mist and Fog 64 17.8 64 17.8 100 100 N 7 11 29.98 1015 2 3 0.00 0.00
5:14 am 05:14 Cloudy with Mist and Fog 64 17.8 64 17.8 100 100 N 7 11 29.98 1015 1 2 0.00 0.00
5:31 am 05:31 Mostly Cloudy with Mist and Fog 63 17.2 63 17.2 100 100 N 7 11 29.99 1015 1 1 0.00 0.00
5:52 am 05:52 Mostly Cloudy with Mist and Fog 63 17.2 63 17.2 100 100 NNW 7 11 29.99 1016 1 2 0.00 0.00
6:06 am 06:06 Cloudy with Mist and Fog 63 17.2 63 17.2 100 100 NNW 6 9 30.01 1016 3 5 0.00 0.00
6:16 am 06:16 Cloudy with Mist and Fog 64 17.8 64 17.8 100 100 N 6 9 30.00 1016 2 3 0.00 0.00
6:33 am 06:33 Mostly Cloudy with Mist and Fog 64 17.8 64 17.8 100 100 N 7 11 30.01 1016 1 2 0.00 0.00
6:40 am 06:40 Mostly Cloudy with Fog 64 17.8 64 17.8 100 100 N 6 9 30.01 1016 1 1 0.00 0.00
6:52 am 06:52 Mostly Cloudy with Fog 65 18.3 65 18.3 100 100 N 7 11 30.00 1016 1 1 0.00 0.00
7:03 am 07:03 Cloudy with Mist and Fog 65 18.3 65 18.3 100 100 N 8 13 30.01 1016 2 3 0.00 0.00
7:12 am 07:12 Cloudy with Mist and Fog 65 18.3 65 18.3 100 100 N 9 15 30.01 1016 3 5 0.00 0.00
7:52 am 07:52 Cloudy 65 18.3 65 18.3 100 100 N 8 13 30.01 1016 7 11 0.00 0.00
8:52 am 08:52 Cloudy 66 18.9 65 18.3 96 96 NNE 9 15 30.03 1017 10 16 0.00 0.00
9:10 am 09:10 Cloudy 67 19.4 65 18.3 93 93 N 6 9 30.03 1017 10 16 0.00 0.00
9:43 am 09:43 Mostly Cloudy 70 21.1 65 18.3 84 84 N 7 11 30.03 1017 10 16 0.00 0.00
9:52 am 09:52 Mostly Cloudy 71 21.7 65 18.3 81 81 NNE 8 13 30.04 1017 10 16 0.00 0.00
10:12 am 10:12 Cloudy 72 22.2 65 18.3 79 79 NNW 10 17 30.02 1017 10 16 0.00 0.00
10:52 am 10:52 Partly Cloudy 74 23.3 65 18.3 74 74 N 10 17 30.04 1017 10 16 0.00 0.00
11:32 am 11:32 Mostly Cloudy 73 22.8 63 17.2 71 71 N 14 22 30.02 1017 10 16 0.00 0.00
11:41 am 11:41 Mostly Cloudy 77 25 65 18.3 66 66 NNE 13 20 30.01 1016 10 16 0.00 0.00
11:52 am 11:52 Mostly Cloudy 75 23.9 62 16.7 64 64 NNW 15 24 30.04 1017 10 16 0.00 0.00
12:00 pm 12:00 Mostly Cloudy 77 25 63 17.2 62 62 N 15 24 30.02 1017 10 16 0.00 0.00
12:52 pm 12:52 Partly Cloudy 79 26.1 61 16.1 54 54 N 14 22 30.04 1017 10 16 0.00 0.00
1:52 pm 13:52 Mostly Sunny 79 26.1 61 16.1 54 54 NNW 14 22 30.02 1017 10 16 0.00 0.00
2:52 pm 14:52 Partly Cloudy 78 25.6 59 15 52 52 NW 14 22 30.02 1017 10 16 0.00 0.00
3:52 pm 15:52 Partly Cloudy 78 25.6 57 13.9 48 48 NNW 9 15 30.01 1016 10 16 0.00 0.00
4:52 pm 16:52 Partly Cloudy 79 26.1 57 13.9 47 47 NW 10 17 30.00 1016 10 16 0.00 0.00
5:52 pm 17:52 Partly Cloudy 76 24.4 57 13.9 52 52 NNW 12 19 30.00 1016 10 16 0.00 0.00
6:52 pm 18:52 Sunny 75 23.9 57 13.9 54 54 N 12 19 30.00 1016 10 16 0.00 0.00
7:52 pm 19:52 Sunny 72 22.2 57 13.9 59 59 N 8 13 30.01 1016 10 16 0.00 0.00
8:52 pm 20:52 Clear 68 20 57 13.9 68 68 N 7 11 30.02 1017 10 16 0.00 0.00
9:52 pm 21:52 Clear 65 18.3 57 13.9 76 76 NNW 6 9 30.04 1017 10 16 0.00 0.00
10:52 pm 22:52 Clear 62 16.7 57 13.9 84 84 NNW 5 7 30.06 1018 10 16 0.00 0.00
11:52 pm 23:52 Clear 63 17.2 58 14.4 84 84 N 7 11 30.06 1018 10 16 0.00 0.00

Powered by AerisWeather